FW6550 Weather Reports


time (UTC)temp
C
wind
direction
speed
KPH
gust
KPH
rain 1hr
cm
rain 24hr
cm
rain mn
cm
humidity
%
barometer
mb
20260506233033 24 0 0.0 3.2 0.00 0.00 0.00 64 1011.5
20260506231533 24 0 0.0 3.2 0.00 0.00 0.00 68 1011.5
20260506230042 24 0 0.0 1.6 0.00 0.00 0.00 71 1011.8
20260506224534 25 0 0.0 4.8 0.00 0.00 0.00 70 1011.5
20260506223032 25 0 0.0 3.2 0.00 0.00 0.00 70 1011.2
20260506221537 25 228 0.0 3.2 0.00 0.00 0.00 61 1011.2
20260506220040 24 0 0.0 4.8 0.00 0.00 0.00 57 1011.4
20260506214531 24 0 0.0 4.8 0.00 0.00 0.00 59 1011.8
20260506213032 24 0 0.0 4.8 0.00 0.00 0.00 58 1011.9
20260506211540 24 158 0.0 4.8 0.00 0.00 0.00 47 1011.9
20260506210031 24 0 0.0 4.8 0.00 0.00 0.00 61 1012.0
20260506204533 24 0 0.0 4.8 0.00 0.00 0.00 68 1012.1
20260506203032 24 0 0.0 8.0 0.00 0.00 0.00 73 1012.4
20260506201532 25 0 1.6 14.5 0.00 0.00 0.00 78 1012.7
20260506200032 25 0 0.0 3.2 0.00 0.00 0.00 79 1012.7
20260506194538 25 0 1.6 8.0 0.00 0.00 0.00 79 1013.1
20260506193034 25 0 0.0 6.4 0.00 0.00 0.00 78 1013.4
20260506191534 25 0 0.0 9.7 0.00 0.00 0.00 78 1013.7
20260506190032 26 0 1.6 9.7 0.00 0.00 0.00 77 1013.7
20260506184531 26 0 0.0 11.3 0.00 0.00 0.00 77 1013.9
20260506183034 26 178 3.2 14.5 0.00 0.00 0.00 76 1013.8
20260506181536 27 155 1.6 8.0 0.00 0.00 0.00 73 1014.0
20260506180038 27 186 1.6 12.9 0.00 0.00 0.00 76 1013.8
20260506174534 26 165 3.2 11.3 0.00 0.00 0.00 76 1013.7
20260506173032 25 0 1.6 9.7 0.00 0.00 0.00 77 1013.8
20260506171533 25 213 1.6 8.0 0.00 0.00 0.00 78 1014.0
20260506170036 25 248 3.2 11.3 0.00 0.00 0.00 78 1014.2
20260506164532 25 263 1.6 12.9 0.00 0.00 0.00 78 1014.3
20260506163035 25 266 0.0 8.0 0.00 0.00 0.00 78 1014.4
20260506161535 25 228 0.0 6.4 0.00 0.00 0.00 77 1014.5
20260506160035 26 207 1.6 11.3 0.00 0.00 0.00 75 1014.4
20260506154539 26 0 3.2 12.9 0.00 0.00 0.00 76 1014.2
20260506153041 26 0 0.0 9.7 0.00 0.00 0.00 76 1014.1
20260506151534 26 5 0.0 9.7 0.00 0.00 0.00 75 1013.8
20260506150040 25 0 3.2 8.0 0.00 0.00 0.00 77 1013.9
20260506144552 25 180 0.0 4.8 0.00 0.00 0.00 78 1013.9
20260506143041 24 177 0.0 6.4 0.00 0.00 0.00 78 1013.9
20260506141529 24 109 1.6 6.4 0.00 0.00 0.00 78 1013.8
20260506140053 23 0 0.0 6.4 0.00 0.00 0.00 79 1013.9
20260506134536 23 0 0.0 8.0 0.00 0.00 0.00 78 1014.1
20260506133032 22 0 0.0 6.4 0.00 0.00 0.00 75 1014.1
20260506131543 21 0 1.6 9.7 0.00 0.00 0.00 73 1014.2
20260506130054 21 227 0.0 6.4 0.00 0.00 0.00 66 1014.3
20260506124534 21 0 0.0 8.0 0.00 0.00 0.00 64 1014.5
20260506123039 20 0 0.0 4.8 0.00 0.00 0.00 65 1014.5
20260506121534 20 0 0.0 6.4 0.00 0.00 0.00 65 1014.2
20260506120034 20 238 0.0 6.4 0.00 0.00 0.00 69 1013.9
20260506114533 20 193 0.0 6.4 0.00 0.00 0.00 70 1014.1
20260506113038 20 0 0.0 6.4 0.00 0.00 0.00 71 1013.7
20260506111534 20 227 1.6 14.5 0.00 0.00 0.00 72 1013.4
20260506110040 20 91 0.0 19.3 0.00 0.00 0.00 73 1013.2
20260506104532 20 0 0.0 6.4 0.00 0.00 0.00 74 1012.9
20260506103033 20 187 1.6 11.3 0.00 0.00 0.00 75 1012.8
20260506101535 20 173 0.0 9.7 0.00 0.00 0.00 76 1012.7
20260506100034 20 0 1.6 6.4 0.00 0.00 0.00 77 1012.7
20260506094534 20 0 0.0 4.8 0.00 0.00 0.00 78 1012.4
20260506093035 20 0 0.0 6.4 0.00 0.00 0.00 78 1012.0
20260506091533 20 0 0.0 4.8 0.00 0.00 0.00 79 1011.8
20260506090038 20 0 0.0 6.4 0.00 0.00 0.00 79 1011.5
20260506084537 20 188 0.0 4.8 0.00 0.00 0.00 79 1011.4
20260506083035 20 0 0.0 4.8 0.00 0.00 0.00 79 1011.3
20260506081533 20 19 0.0 4.8 0.00 0.00 0.00 79 1011.6
20260506073039 20 0 0.0 4.8 0.00 0.00 0.00 77 1011.8
20260506071534 20 0 0.0 3.2 0.00 0.00 0.00 76 1011.8
20260506061538 21 0 0.0 9.7 0.00 0.00 0.00 74 1012.3
20260506044547 22 234 1.6 8.0 0.00 0.00 0.00 70 1012.4
20260506043031 22 0 1.6 6.4 0.00 0.00 0.00 69 1012.2
20260506041944 22 197 0.0 8.0 0.00 0.00 0.00 69 1012.0
20260506040032 22 0 1.6 9.7 0.00 0.00 0.00 69 1012.1
20260506034530 22 0 0.0 3.2 0.00 0.00 0.00 70 1012.3
20260506033034 22 0 0.0 4.8 0.00 0.00 0.00 69 1012.3
20260506031544 22 197 0.0 9.7 0.00 0.00 0.00 69 1012.2
20260506030032 22 47 1.6 11.3 0.00 0.00 0.00 69 1012.2
20260506024536 22 135 0.0 6.4 0.00 0.00 0.00 69 1011.7
20260506023035 22 0 0.0 6.4 0.00 0.00 0.00 69 1011.7
20260506021534 22 0 0.0 3.2 0.00 0.00 0.00 69 1011.5
20260506020035 23 0 0.0 3.2 0.00 0.00 0.00 69 1011.8
20260506014534 23 0 0.0 3.2 0.00 0.00 0.00 69 1011.6
20260506013041 23 0 0.0 0.0 0.00 0.00 0.00 69 1011.6
20260506011541 23 0 0.0 0.0 0.00 0.00 0.00 67 1011.4
20260506010053 23 0 0.0 1.6 0.00 0.00 0.00 66 1011.8
20260506004534 23 0 0.0 3.2 0.00 0.00 0.00 65 1011.7
20260506003034 24 0 0.0 3.2 0.00 0.00 0.00 64 1011.7
20260506001531 24 0 0.0 3.2 0.00 0.00 0.00 63 1011.7
20260506000037 25 0 0.0 1.6 0.00 0.00 0.00 61 1011.5
20260505234536 25 238 0.0 4.8 0.00 0.00 0.00 60 1011.6